[[{"header":{"parameterUnit":"m.s-1","parameterCategory":1,"la1":30.2991,"la2":30.254,"lo1":-89.0895,"lo2":-89.0444,"dy":0.0017,"dx":0.0017,"nx":28,"ny":28,"refTime":"2024-07-23T03:00:00:Z","depth":0,"parameterNumber":2,"parameterNumberName":"U-component_of_WINDS"},"data":[0,0,0,0,0,0,0,0,0,0,0,0,0,0,0,0,0,0,0,0,0,0,0,0,0,0,0,0,0,0,0,0,0,0,0,0,0,0,0,0,0,0,0,0,0,0,0,0,0,0,0,0,0,0,0,0,0,0,-2.3447,-2.3446,0,-2.3413,-2.3412,-2.3412,-2.3384,-2.3384,-2.3384,-2.3383,-2.3347,-2.3346,-2.3345,0,0,0,0,0,0,0,0,0,0,0,0,0,-2.3484,-2.3483,-2.3447,-2.3446,-2.3446,-2.3413,-2.3412,-2.3412,-2.3384,-2.3384,-2.3384,-2.3383,-2.3347,-2.3346,-2.3345,0,0,0,0,0,0,0,0,0,0,0,0,0,-2.3461,-2.3483,-2.3447,-2.3428,-2.3426,-2.3413,-2.3412,-2.3412,-2.3384,-2.3384,-2.3383,-2.3383,-2.3347,-2.3346,-2.3345,-2.3347,0,0,-2.3342,-2.3341,0,0,0,0,0,0,0,0,-2.3462,-2.3459,-2.3431,-2.3429,-2.3427,-2.3402,-2.3412,-2.339,-2.3384,-2.34,-2.3383,-2.3383,-2.3365,-2.3363,-2.3357,-2.3345,-2.3344,-2.3342,-2.3341,-2.3341,-2.334,0,0,0,0,0,0,0,-2.3464,-2.346,-2.3433,-2.3431,-2.3428,-2.342,-2.3416,-2.3408,-2.3386,-2.3399,-2.3397,-2.3393,-2.3364,-2.3358,-2.3356,-2.3343,-2.3342,-2.3341,-2.334,-2.334,-2.3327,-2.3327,0,0,0,0,0,0,-2.3468,-2.3462,-2.3434,-2.3432,-2.3444,-2.342,-2.3416,-2.3411,-2.3386,-2.3381,-2.3393,-2.3392,-2.336,-2.3358,-2.3355,-2.3353,-2.3341,-2.334,-2.3339,-2.3327,-2.3327,-2.3327,0,0,0,0,0,0,-2.3469,-2.3466,-2.3436,-2.3446,-2.3442,-2.342,-2.3414,-2.341,-2.3404,-2.3382,-2.3377,-2.3392,-2.336,-2.3356,-2.3348,-2.3351,-2.3339,-2.3338,-2.3326,-2.3327,-2.3327,-2.3351,0,0,0,0,0,0,-2.3471,-2.3467,-2.3469,-2.3447,-2.3442,-2.3431,-2.3415,-2.341,-2.3403,-2.3401,-2.3379,-2.3375,-2.3359,-2.335,-2.3347,-2.335,-2.3337,-2.3326,-2.3326,-2.3327,-2.335,-2.3352,-2.3354,0,0,0,0,0,-2.3472,-2.3477,-2.3469,-2.3466,-2.3443,-2.3432,-2.3428,-2.3411,-2.3403,-2.3404,-2.3388,-2.3376,-2.3352,-2.335,-2.3346,-2.3348,-2.3326,-2.3326,-2.3327,-2.3349,-2.3352,-2.3354,0,0,0,0,0,0,-2.35,-2.3474,-2.3465,-2.3463,-2.345,-2.3427,-2.3427,-2.3415,-2.3403,-2.3402,-2.338,-2.3375,-2.3369,-2.3358,-2.3356,-2.3347,-2.3337,-2.3337,-2.3354,-2.3357,-2.3359,-2.3362,-2.3337,0,0,0,0,0,-2.3506,-2.3499,-2.3477,-2.3477,-2.3471,-2.345,-2.3445,-2.3432,-2.3417,-2.3411,-2.3396,-2.3381,-2.3369,-2.3363,-2.3351,-2.3348,-2.3341,-2.3347,-2.3349,-2.3351,-2.3351,-2.3346,-2.3347,-2.3329,-2.3329,-2.3329,0,0,-2.3518,-2.3503,-2.35,-2.3482,-2.3471,-2.3463,-2.3446,-2.3439,-2.3432,-2.341,-2.3401,-2.3389,-2.3371,-2.3364,-2.336,-2.3355,-2.3355,-2.3352,-2.3354,-2.3353,-2.3347,-2.3348,-2.335,-2.333,-2.333,-2.333,0,0,-2.3536,-2.3525,-2.3523,-2.3511,-2.3493,-2.3479,-2.3478,-2.3457,-2.3447,-2.3438,-2.342,-2.3411,-2.3393,-2.338,-2.3371,-2.338,-2.3367,-2.3377,-2.3389,-2.3383,-2.3385,-2.3386,-2.3387,-2.3388,-2.3377,-2.3378,-2.3378,0,-2.3553,-2.3542,-2.3523,-2.3517,-2.3508,-2.3487,-2.3483,-2.3472,-2.3452,-2.3445,-2.3439,-2.3414,-2.34,-2.3389,-2.3391,-2.3385,-2.3382,-2.338,-2.3386,-2.3387,-2.3388,-2.3389,-2.339,-2.3379,-2.3379,-2.3379,-2.3378,0,-2.3563,-2.3555,-2.3555,-2.3535,-2.3526,-2.3522,-2.35,-2.3493,-2.3481,-2.3466,-2.3455,-2.3438,-2.3421,-2.3418,-2.3406,-2.3404,-2.34,-2.3391,-2.338,-2.3391,-2.3392,-2.3392,-2.3381,-2.338,-2.338,-2.3379,0,0,-2.3599,-2.3567,-2.3567,-2.3556,-2.3534,-2.3526,-2.3519,-2.3503,-2.3496,-2.3482,-2.3474,-2.3457,-2.3447,-2.3437,-2.3422,-2.3418,-2.3423,-2.3408,-2.3407,-2.341,-2.3417,-2.3424,-2.3425,-2.3414,-2.3414,-2.3414,-2.3418,0,-2.3612,-2.3599,-2.358,-2.3572,-2.3563,-2.3541,-2.3535,-2.3519,-2.3505,-2.3494,-2.3477,-2.3465,-2.3454,-2.3447,-2.3442,-2.3424,-2.3424,-2.3424,-2.3405,-2.3405,-2.341,-2.3426,-2.3434,-2.3438,-2.3419,-2.3419,-2.3419,0,-2.3626,-2.3612,-2.3603,-2.3579,-2.3574,-2.3569,-2.355,-2.3541,-2.3521,-2.3511,-2.3498,-2.3482,-2.3471,-2.3462,-2.3445,-2.3444,-2.3435,-2.3425,-2.3425,-2.3422,-2.3412,-2.3422,-2.344,-2.344,-2.3419,-2.3419,-2.3419,0,-2.365,-2.3629,-2.3621,-2.3613,-2.3584,-2.358,-2.3568,-2.3548,-2.3539,-2.3523,-2.3516,-2.3498,-2.3489,-2.3475,-2.3454,-2.3449,-2.3438,-2.3427,-2.3427,-2.3428,-2.3426,-2.3427,-2.3441,-2.3422,-2.3422,-2.3422,-2.3422,0,-2.3666,-2.3661,-2.3631,-2.3626,-2.3618,-2.3596,-2.3589,-2.3575,-2.3557,-2.3547,-2.3527,-2.3518,-2.3491,-2.3478,-2.3461,-2.3448,-2.3445,-2.3434,-2.343,-2.3436,-2.3437,-2.3429,-2.3428,-2.3422,-2.3422,-2.3422,-2.3422,0,-2.3692,-2.3672,-2.3661,-2.3635,-2.3628,-2.3623,-2.36,-2.3593,-2.3576,-2.3564,-2.3559,-2.3534,-2.3517,-2.3495,-2.3471,-2.346,-2.3448,-2.3442,-2.3455,-2.3452,-2.3453,-2.3453,-2.3463,-2.3462,-2.3445,-2.3445,-2.3445,0,-2.3703,-2.3699,-2.3672,-2.3664,-2.3652,-2.364,-2.3629,-2.3606,-2.3596,-2.3572,-2.3567,-2.3549,-2.3533,-2.3507,-2.3485,-2.3466,-2.3459,-2.3463,-2.3456,-2.3461,-2.3457,-2.3457,-2.3456,-2.3465,-2.3466,-2.3466,-2.3466,0,-2.3724,-2.3714,-2.37,-2.3683,-2.3671,-2.3656,-2.364,-2.3634,-2.3607,-2.3596,-2.3579,-2.3567,-2.3542,-2.3523,-2.3501,-2.3486,-2.3471,-2.3469,-2.3467,-2.3473,-2.348,-2.3475,-2.3459,-2.3469,-2.3468,-2.3468,-2.3468,-2.3468,-2.3742,-2.3736,-2.3715,-2.37,-2.3685,-2.367,-2.3661,-2.3643,-2.3629,-2.3607,-2.3594,-2.3577,-2.3555,-2.3523,-2.3509,-2.3494,-2.3488,-2.3487,-2.3486,-2.3486,-2.3487,-2.3483,-2.349,-2.349,-2.349,-2.349,-2.349,0,-2.376,-2.3745,-2.3732,-2.3709,-2.3697,-2.3684,-2.3664,-2.3654,-2.364,-2.3621,-2.3605,-2.3584,-2.3565,-2.3541,-2.352,-2.3512,-2.3504,-2.3507,-2.3507,-2.3504,-2.3495,-2.3497,-2.3514,-2.3514,-2.3514,-2.3514,-2.3514,-2.3514,-2.3768,-2.3757,-2.3743,-2.3723,-2.3708,-2.3692,-2.3681,-2.3666,-2.3651,-2.3628,-2.3613,-2.3597,-2.3575,-2.3552,-2.3534,-2.3527,-2.3519,-2.3524,-2.3515,-2.3507,-2.3505,-2.3503,-2.3505,-2.3523,-2.3523,-2.3525,-2.3525,-2.3526]},{"header":{"parameterUnit":"m.s-1","parameterCategory":1,"la1":30.2991,"la2":30.254,"lo1":-89.0895,"lo2":-89.0444,"dy":0.0017,"dx":0.0017,"nx":28,"ny":28,"refTime":"2024-07-23T03:00:00:Z","depth":0,"parameterNumber":3,"parameterNumberName":"V-component_of_WINDS"},"data":[0,0,0,0,0,0,0,0,0,0,0,0,0,0,0,0,0,0,0,0,0,0,0,0,0,0,0,0,0,0,0,0,0,0,0,0,0,0,0,0,0,0,0,0,0,0,0,0,0,0,0,0,0,0,0,0,0,0,-0.5774,-0.5776,0,-0.5942,-0.5944,-0.5946,-0.6057,-0.6058,-0.6059,-0.6059,-0.6231,-0.6235,-0.6239,0,0,0,0,0,0,0,0,0,0,0,0,0,-0.5549,-0.5552,-0.5774,-0.5776,-0.5778,-0.5942,-0.5944,-0.5947,-0.6057,-0.6058,-0.6059,-0.606,-0.623,-0.6234,-0.6239,0,0,0,0,0,0,0,0,0,0,0,0,0,-0.5674,-0.5553,-0.5774,-0.5853,-0.5862,-0.5941,-0.5944,-0.5947,-0.6057,-0.6058,-0.6059,-0.606,-0.6228,-0.6234,-0.624,-0.6253,0,0,-0.6257,-0.626,0,0,0,0,0,0,0,0,-0.5667,-0.5683,-0.5839,-0.5848,-0.5858,-0.598,-0.5928,-0.605,-0.6056,-0.5983,-0.6059,-0.6061,-0.6146,-0.6159,-0.6188,-0.6261,-0.6269,-0.6258,-0.6261,-0.6264,-0.6266,0,0,0,0,0,0,0,-0.5658,-0.5676,-0.5841,-0.5841,-0.5853,-0.588,-0.5899,-0.5951,-0.6056,-0.5989,-0.5998,-0.6016,-0.6152,-0.6182,-0.6193,-0.6271,-0.6258,-0.6263,-0.6267,-0.6269,-0.6364,-0.6363,0,0,0,0,0,0,-0.5637,-0.5668,-0.5835,-0.5846,-0.5763,-0.5883,-0.5905,-0.594,-0.6056,-0.6075,-0.6015,-0.6021,-0.6172,-0.6186,-0.6199,-0.6223,-0.6264,-0.6269,-0.6273,-0.6365,-0.6363,-0.6362,0,0,0,0,0,0,-0.5632,-0.5651,-0.5829,-0.5759,-0.5784,-0.5886,-0.5924,-0.5942,-0.5973,-0.6076,-0.6095,-0.6027,-0.6173,-0.6191,-0.6239,-0.623,-0.6272,-0.6277,-0.6366,-0.6364,-0.6363,-0.6269,0,0,0,0,0,0,-0.5625,-0.5648,-0.5655,-0.5759,-0.5787,-0.5865,-0.5924,-0.5945,-0.5983,-0.5992,-0.6092,-0.6109,-0.6175,-0.623,-0.6245,-0.6239,-0.6282,-0.6367,-0.6365,-0.6363,-0.6273,-0.6264,-0.6257,0,0,0,0,0,-0.5617,-0.5622,-0.5655,-0.5674,-0.5797,-0.5864,-0.5881,-0.5957,-0.5982,-0.5989,-0.6054,-0.6106,-0.6229,-0.6234,-0.6252,-0.6247,-0.6368,-0.6366,-0.6363,-0.6277,-0.6266,-0.6257,0,0,0,0,0,0,-0.5514,-0.5637,-0.5675,-0.5714,-0.5778,-0.5883,-0.5894,-0.5943,-0.6001,-0.6007,-0.6099,-0.6121,-0.6159,-0.6208,-0.6211,-0.6266,-0.6305,-0.6306,-0.6232,-0.6223,-0.6215,-0.6202,-0.6287,0,0,0,0,0,-0.5496,-0.5541,-0.5645,-0.567,-0.57,-0.5791,-0.5823,-0.5876,-0.5946,-0.5974,-0.6043,-0.6109,-0.6163,-0.6196,-0.6251,-0.6281,-0.6304,-0.6287,-0.6279,-0.6272,-0.6271,-0.629,-0.6284,-0.6355,-0.6355,-0.6355,0,0,-0.546,-0.5532,-0.5554,-0.5651,-0.5707,-0.575,-0.5813,-0.5857,-0.589,-0.5981,-0.603,-0.6083,-0.6162,-0.6201,-0.6222,-0.6243,-0.6257,-0.6269,-0.6262,-0.6266,-0.6287,-0.6281,-0.6274,-0.6354,-0.6354,-0.6354,0,0,-0.5415,-0.5474,-0.5501,-0.5555,-0.5639,-0.57,-0.5706,-0.5804,-0.5842,-0.5893,-0.5962,-0.6003,-0.6093,-0.6147,-0.6186,-0.616,-0.621,-0.6176,-0.6133,-0.615,-0.6144,-0.614,-0.613,-0.6125,-0.6175,-0.6175,-0.6175,0,-0.5358,-0.5427,-0.5508,-0.5547,-0.5587,-0.5672,-0.5699,-0.5748,-0.5845,-0.5871,-0.5894,-0.6008,-0.6068,-0.612,-0.6114,-0.6143,-0.6152,-0.6164,-0.6139,-0.6135,-0.6132,-0.6123,-0.6119,-0.617,-0.6171,-0.6172,-0.6172,0,-0.5353,-0.5399,-0.541,-0.5501,-0.5543,-0.5576,-0.5662,-0.5694,-0.5744,-0.5801,-0.5852,-0.5926,-0.5997,-0.6014,-0.6063,-0.6073,-0.6084,-0.6121,-0.6161,-0.6119,-0.6112,-0.611,-0.6164,-0.6165,-0.6167,-0.6168,0,0,-0.5248,-0.5383,-0.5386,-0.5428,-0.5527,-0.5564,-0.56,-0.567,-0.5695,-0.576,-0.5792,-0.5866,-0.5902,-0.5946,-0.6002,-0.6017,-0.5991,-0.6054,-0.6057,-0.6038,-0.6006,-0.5976,-0.597,-0.6025,-0.6025,-0.6024,-0.5999,0,-0.5217,-0.5286,-0.536,-0.5404,-0.5447,-0.5528,-0.556,-0.5623,-0.5678,-0.5723,-0.5785,-0.5835,-0.5879,-0.5906,-0.5925,-0.599,-0.5986,-0.5993,-0.6055,-0.6056,-0.6031,-0.5967,-0.5936,-0.5908,-0.5997,-0.5996,-0.5996,0,-0.519,-0.5249,-0.5297,-0.5391,-0.5412,-0.5439,-0.5508,-0.555,-0.5624,-0.5663,-0.5712,-0.5771,-0.5813,-0.5849,-0.5908,-0.5911,-0.5941,-0.5977,-0.5978,-0.5986,-0.6023,-0.5972,-0.5901,-0.5896,-0.5993,-0.5993,-0.5994,0,-0.5106,-0.5199,-0.524,-0.5273,-0.5384,-0.5401,-0.5448,-0.5523,-0.556,-0.5621,-0.5645,-0.571,-0.5745,-0.5794,-0.5868,-0.5888,-0.5919,-0.5961,-0.5952,-0.595,-0.5954,-0.5953,-0.5885,-0.5975,-0.5975,-0.5975,-0.5975,0,-0.5063,-0.5089,-0.5204,-0.5228,-0.5259,-0.5344,-0.5373,-0.5427,-0.5493,-0.5529,-0.5604,-0.5636,-0.5733,-0.5777,-0.5836,-0.5876,-0.5891,-0.5924,-0.5939,-0.5916,-0.5912,-0.5937,-0.594,-0.5974,-0.5974,-0.5975,-0.5975,0,-0.4975,-0.5053,-0.5103,-0.5203,-0.5229,-0.5247,-0.5334,-0.5361,-0.542,-0.5465,-0.5481,-0.5574,-0.563,-0.5709,-0.5789,-0.5829,-0.5859,-0.5884,-0.5834,-0.5843,-0.5829,-0.5828,-0.5774,-0.5771,-0.5862,-0.5862,-0.5861,0,-0.4942,-0.4964,-0.5067,-0.5096,-0.5141,-0.5187,-0.5225,-0.531,-0.5346,-0.5431,-0.5448,-0.5509,-0.5563,-0.5648,-0.5722,-0.5784,-0.581,-0.5787,-0.582,-0.5797,-0.5809,-0.5806,-0.5808,-0.5779,-0.5777,-0.5776,-0.5775,0,-0.4874,-0.4912,-0.4963,-0.5028,-0.5071,-0.5126,-0.5185,-0.5205,-0.5302,-0.5339,-0.5397,-0.5438,-0.552,-0.5579,-0.5651,-0.57,-0.5753,-0.5764,-0.5765,-0.5742,-0.5711,-0.5727,-0.5811,-0.5765,-0.5766,-0.5767,-0.5767,-0.5768,-0.4813,-0.4835,-0.4911,-0.4965,-0.5018,-0.5071,-0.5101,-0.5164,-0.5214,-0.5286,-0.5334,-0.5388,-0.5462,-0.5563,-0.5609,-0.5653,-0.5676,-0.5677,-0.5678,-0.5676,-0.5668,-0.5705,-0.5667,-0.5667,-0.5668,-0.5668,-0.5668,0,-0.4748,-0.48,-0.485,-0.4929,-0.4972,-0.5019,-0.5086,-0.5119,-0.5166,-0.523,-0.5281,-0.5347,-0.5405,-0.5484,-0.5548,-0.5568,-0.5594,-0.5582,-0.5581,-0.5591,-0.5645,-0.5637,-0.556,-0.556,-0.556,-0.556,-0.556,-0.556,-0.4719,-0.4759,-0.4805,-0.4872,-0.4925,-0.4979,-0.5014,-0.5063,-0.5114,-0.5184,-0.5232,-0.5284,-0.5354,-0.5423,-0.5479,-0.5501,-0.552,-0.55,-0.5529,-0.5577,-0.5587,-0.5597,-0.559,-0.5504,-0.5503,-0.5471,-0.5471,-0.5471]}]]